Regional Weather Roundup
Issued by NWS

Home | Current Version | Previous Version | Text Only | Print | Product List | Glossary On
Versions: 1 2 3 4 5 6 7 8 9 10 11 12 13 14 15 16 17 18 19 20 21 22 23 24 25 26 27 28 29 30 31 32 33 34 35 36 37 38 39 40 41 42 43 44 45 46 47 48 49 50
000
ASUS43 KBIS 202320
RWRND

NORTH DAKOTA REGIONAL WEATHER ROUNDUP
NATIONAL WEATHER SERVICE BISMARCK ND
600 PM CDT MON OCT 20 2014

NOTE: "FAIR" INDICATES FEW OR NO CLOUDS BELOW 12,000 FEET WITH NO
SIGNIFICANT WEATHER AND/OR OBSTRUCTIONS TO VISIBILITY.


NDZ001>003-009>011-017-210000-
NORTHWEST NORTH DAKOTA

CITY           SKY/WX    TMP DP  RH WIND       PRES   REMARKS
WILLISTON      CLEAR     76  40  27 S12       29.82F
MINOT          CLEAR     68  36  30 SE9       29.90F
MINOT AFB      CLEAR     67  40  37 S12       29.89F
$$

NDZ018>021-031>035-040>046-210000-
SOUTHWEST NORTH DAKOTA

CITY           SKY/WX    TMP DP  RH WIND       PRES   REMARKS
BISMARCK       CLEAR     69  35  28 SE12      29.95F
DICKINSON      CLEAR     69  42  37 S12       29.88F
GARRISON         N/A     68  41  37 S9        29.91F
HETTINGER ARPT CLEAR     71  39  31 SE12G21   29.92F
$$

NDZ004>008-012>016-024-026-027-054-210000-
NORTHEAST NORTH DAKOTA

CITY           SKY/WX    TMP DP  RH WIND       PRES   REMARKS
GRAND FORKS    CLEAR     57  42  57 E5        30.03R
GRND FRKS AFB  CLEAR     57  44  62 SE6       30.03S
DEVILS LAKE    CLEAR     61  39  44 SE8       29.97F
$$

NDZ022-023-025-028>030-036>039-047>053-210000-
SOUTHEAST NORTH DAKOTA

CITY           SKY/WX    TMP DP  RH WIND       PRES   REMARKS
FARGO          CLEAR     61  43  51 E5        30.02S
JAMESTOWN      CLEAR     65  38  36 SE7       29.99S
$$



USA.gov is the U.S. government's official web portal to all federal, state and local government web resources and services.